Wind_Speed
25 24 24 25 27 29 31 32 33 33 30 28 28 27 28 27 25 24 23 24 25 25 23 20 20 20 19 19 19 19 19 18 19 19 19 20 20 20 21 21 21 21
26 25 24 25 26 28 31 33 35 34 32 31 30 28 28 28 27 25 24 25 26 25 23 21 20 20 19 19 19 18 18 18 18 19 20 20 20 20 21 20 20 20
26 26 25 25 26 28 32 35 35 35 35 34 32 29 29 29 28 27 26 26 26 25 23 21 20 20 19 19 19 18 18 18 18 19 20 20 20 20 21 21 20 20
25 27 26 25 27 30 33 36 35 35 36 35 32 29 29 29 29 28 27 27 26 25 23 22 20 20 20 19 19 18 18 18 19 19 20 20 20 20 21 21 21 21
26 27 27 26 28 31 34 36 35 34 36 35 32 29 28 29 29 28 28 27 26 24 23 22 21 20 20 19 19 18 18 18 19 19 20 20 20 21 21 22 21 21
28 29 28 28 29 32 34 36 35 34 35 34 31 28 28 28 29 29 29 28 26 24 23 22 21 21 21 20 19 18 18 18 19 19 20 20 21 21 22 22 22 22
30 31 30 29 31 32 35 36 34 32 32 31 30 28 27 28 29 29 29 28 26 24 23 23 21 21 21 20 19 19 18 19 19 20 20 21 21 21 22 22 22 22
32 33 31 31 33 33 34 33 31 28 28 29 28 27 27 28 29 29 29 28 26 24 24 23 22 22 21 21 19 19 18 19 20 20 20 21 21 22 22 22 22 21
34 34 32 33 33 33 32 30 27 26 26 27 27 27 28 29 30 30 30 28 26 24 24 23 22 22 21 21 20 19 19 20 20 20 20 21 22 22 21 21 21 21
35 35 34 34 33 33 32 29 27 27 26 27 27 28 28 30 31 30 29 28 26 25 24 23 23 22 22 21 20 20 20 20 21 21 21 22 22 22 21 21 21 21
36 35 34 35 34 33 33 32 30 28 27 27 28 29 29 30 31 31 29 28 27 26 25 24 23 22 22 21 21 21 21 21 21 21 21 22 22 21 21 21 21 21
37 37 35 36 36 35 35 35 33 29 28 29 29 30 30 31 32 31 29 28 27 26 25 24 23 22 22 22 22 22 22 22 21 21 21 22 22 22 22 21 21 21
40 39 37 37 38 37 37 38 36 32 30 30 31 31 31 32 33 32 30 29 28 27 26 25 24 23 22 22 22 23 23 22 22 22 22 22 22 22 22 22 22 22
42 41 39 39 39 40 40 40 38 34 31 31 32 32 32 33 34 33 30 29 28 27 26 25 24 23 22 23 23 24 24 23 23 22 22 22 23 23 23 23 23 23
42 42 41 40 41 42 42 42 39 35 33 32 32 33 34 34 35 33 30 29 28 27 27 25 24 23 23 23 24 24 25 24 24 24 23 23 23 23 23 24 24 24
44 43 42 42 44 44 44 43 39 35 34 33 33 34 35 35 35 33 30 29 28 28 27 26 24 24 24 24 25 25 25 25 25 25 24 24 24 24 24 25 25 25
45 44 43 45 46 46 45 43 39 35 34 33 34 35 35 35 34 32 30 30 29 29 28 26 25 25 25 25 25 25 26 26 27 26 26 25 25 25 25 25 25 25
46 44 45 47 48 46 45 42 38 35 35 34 35 36 36 35 34 32 31 31 30 29 28 26 26 27 27 27 26 26 27 28 27 27 27 26 26 26 26 26 25 26
45 45 46 49 49 46 44 41 36 35 35 35 36 38 37 36 34 33 32 32 31 30 28 28 27 28 28 27 27 27 28 28 28 28 28 27 27 27 26 26 26 27
46 46 49 51 49 46 43 38 36 36 36 37 39 39 38 36 35 33 33 32 31 30 30 29 29 29 29 28 28 29 29 29 29 29 29 29 28 28 27 26 27 27
47 49 51 52 49 45 41 37 38 38 38 39 40 39 38 37 35 34 34 33 32 31 31 30 29 30 30 29 29 30 30 30 30 30 30 29 29 29 28 27 27 28
49 51 53 51 47 43 39 39 40 40 40 40 40 38 38 37 36 35 34 33 33 33 32 31 31 31 31 30 31 30 30 31 31 31 31 30 30 30 29 29 29 29
50 52 52 50 45 41 40 41 41 41 42 41 39 39 39 37 36 37 36 34 34 34 34 33 33 32 32 31 31 31 31 31 32 32 33 32 32 31 32 32 32 32
50 51 50 46 42 40 41 42 43 43 43 40 38 39 39 37 37 38 37 36 35 35 36 35 34 33 32 32 32 31 31 32 32 33 34 34 34 34 35 36 36 35
50 50 47 43 41 42 43 43 43 43 42 39 38 39 38 37 38 38 38 36 36 37 37 36 34 34 33 32 32 32 32 32 33 34 35 37 37 37 38 39 38 38
49 48 45 43 42 43 43 43 43 42 41 40 39 38 38 37 37 38 38 38 38 39 38 37 35 34 33 33 33 33 32 32 34 34 35 37 38 39 40 40 40 39
Wind_Direction
245 246 249 255 263 268 272 273 274 274 273 271 273 278 282 283 283 281 278 275 272 269 267 268 272 277 281 283 283 284 286 287 288 289 289 288 289 291 289 287 282 278
249 246 245 252 262 268 271 272 272 274 274 272 274 278 281 281 281 279 276 274 271 269 266 266 270 276 280 281 282 284 285 287 289 290 291 291 292 293 293 291 284 277
250 247 244 250 258 264 268 270 270 274 275 275 276 279 279 278 279 278 276 273 271 268 265 265 269 274 278 279 281 283 285 287 289 290 291 292 293 296 296 293 286 278
250 247 244 246 253 259 265 269 271 273 275 276 277 278 276 275 275 275 274 272 270 268 264 263 267 272 275 278 280 283 285 287 289 289 290 291 293 297 297 294 289 281
247 245 241 242 250 257 264 269 271 273 275 276 277 276 273 272 272 272 272 271 269 266 262 262 266 271 274 277 279 282 285 287 289 290 290 291 293 296 297 296 292 286
241 240 238 241 250 257 263 268 271 273 274 275 275 274 272 269 270 271 270 269 266 263 260 261 265 271 274 276 279 282 285 288 290 291 290 291 293 295 297 297 295 290
236 237 236 241 250 256 262 267 270 271 272 273 274 273 269 266 268 270 270 268 265 261 259 261 265 270 273 276 279 282 285 288 290 291 291 292 293 294 296 297 296 292
232 236 237 242 250 256 261 265 266 267 269 272 272 269 265 265 267 268 269 267 264 260 258 260 265 269 272 276 279 282 284 287 289 290 291 291 292 292 294 297 297 294
229 233 237 243 250 256 260 260 261 263 266 269 269 265 263 264 266 267 268 267 262 258 257 259 263 267 272 276 279 280 282 284 287 289 290 291 291 291 294 296 297 294
230 231 237 244 249 254 257 257 257 260 263 267 268 266 264 264 265 267 267 266 261 256 256 258 262 266 271 275 277 278 280 282 285 288 289 291 291 291 292 294 294 293
230 229 237 244 247 252 255 257 257 257 262 267 269 269 266 263 264 266 266 264 259 255 255 257 261 265 269 273 275 276 278 280 284 287 290 291 291 290 289 290 291 291
231 227 234 242 245 249 253 256 258 257 261 267 270 270 267 263 263 264 265 263 258 255 255 257 260 265 269 272 274 275 277 279 283 287 290 290 290 288 286 287 288 289
232 227 231 239 244 247 250 255 258 258 260 266 270 270 266 262 261 263 263 261 257 254 254 257 260 264 268 271 273 275 276 279 282 286 288 289 289 286 284 284 286 287
232 228 229 236 242 245 248 253 257 258 260 266 270 269 265 261 260 261 261 260 256 253 254 257 260 264 267 270 272 274 276 278 280 283 286 288 287 285 283 283 284 285
230 227 228 234 239 243 248 253 256 257 260 265 269 267 263 260 258 260 260 259 255 253 253 256 259 263 266 269 271 274 275 276 278 280 284 286 287 285 283 282 283 284
227 227 228 232 237 241 246 251 254 256 260 264 267 266 262 259 258 258 259 258 255 252 252 255 258 262 265 267 270 273 275 276 277 279 282 284 286 285 284 283 283 284
226 227 228 231 235 239 245 250 253 256 260 263 265 264 261 258 257 258 257 256 254 251 252 254 257 261 263 265 269 272 274 275 276 277 279 282 285 285 284 283 284 284
226 227 228 231 234 238 244 248 251 255 259 262 264 264 261 258 256 256 256 255 253 251 251 253 256 259 262 265 268 271 273 274 275 276 278 281 283 284 283 283 283 284
226 226 228 231 234 238 243 247 250 255 259 262 263 261 259 256 255 254 254 255 253 251 250 251 254 258 262 265 268 270 272 274 275 276 277 280 282 283 283 283 283 285
224 225 228 232 235 238 242 246 251 255 258 260 260 259 257 255 254 253 253 253 253 251 249 249 252 257 261 264 266 269 271 273 274 276 277 278 280 282 282 282 283 286
223 225 229 232 236 239 242 246 251 254 256 258 257 257 255 254 252 252 252 252 252 251 249 249 251 255 258 262 265 268 270 272 273 274 275 276 278 279 280 280 282 286
223 226 230 233 236 240 242 246 249 252 253 254 255 254 253 252 252 252 251 251 251 250 249 248 249 252 256 260 263 267 269 271 272 273 274 274 276 277 277 278 281 285
224 227 230 234 237 240 242 245 248 249 250 252 253 252 251 251 251 251 251 251 251 251 249 248 249 252 255 259 263 266 269 271 273 274 275 275 276 276 277 277 280 283
226 228 232 235 238 240 243 245 247 248 249 252 253 253 252 252 251 251 253 253 252 252 251 250 251 253 255 259 262 265 268 271 273 274 275 276 277 277 277 277 279 282
226 229 233 236 239 241 244 247 250 251 252 255 257 257 257 256 255 256 257 257 257 256 255 254 253 254 257 259 261 264 267 270 272 274 276 277 277 276 275 276 277 279
227 231 234 237 239 242 245 249 253 254 256 258 261 263 263 263 263 262 262 261 260 260 259 259 257 257 258 258 260 262 264 267 271 274 276 278 278 277 275 275 275 275
Height
5814 5814 5815 5815 5815 5814 5814 5814 5814 5815 5816 5816 5817 5817 5817 5817 5817 5817 5816 5815 5815 5815 5815 5815 5815 5815 5815 5814 5814 5814 5813 5813 5813 5813 5812 5811 5810 5810 5809 5808 5807 5806
5811 5812 5812 5812 5812 5812 5812 5811 5811 5812 5812 5813 5813 5814 5814 5814 5814 5814 5813 5813 5812 5812 5813 5813 5813 5813 5813 5812 5811 5811 5811 5811 5811 5810 5810 5809 5808 5808 5807 5806 5805 5804
5808 5809 5809 5810 5810 5809 5808 5808 5808 5809 5809 5809 5810 5811 5811 5811 5812 5811 5811 5810 5810 5810 5810 5810 5810 5810 5810 5810 5809 5809 5809 5808 5808 5808 5807 5807 5806 5805 5804 5803 5803 5802
5805 5806 5806 5806 5806 5806 5805 5805 5806 5806 5806 5806 5807 5808 5808 5808 5808 5808 5808 5807 5807 5808 5808 5808 5808 5808 5808 5807 5807 5806 5806 5806 5806 5806 5805 5805 5804 5803 5802 5801 5800 5800
5801 5803 5803 5803 5803 5803 5803 5802 5803 5803 5803 5803 5804 5804 5805 5805 5805 5805 5805 5805 5805 5805 5805 5805 5805 5805 5805 5805 5804 5804 5804 5804 5804 5803 5803 5802 5802 5801 5800 5799 5798 5798
5798 5799 5799 5799 5800 5800 5800 5800 5800 5800 5800 5800 5801 5801 5802 5802 5802 5802 5802 5802 5802 5803 5803 5803 5803 5803 5802 5802 5802 5802 5802 5802 5801 5801 5800 5800 5799 5798 5798 5797 5796 5796
5794 5795 5796 5796 5796 5797 5797 5797 5797 5797 5797 5797 5798 5798 5798 5798 5798 5799 5799 5799 5800 5800 5800 5800 5800 5800 5800 5800 5800 5799 5799 5799 5799 5798 5798 5797 5796 5796 5795 5795 5794 5793
5790 5791 5792 5793 5793 5794 5794 5794 5794 5794 5794 5794 5795 5795 5795 5795 5795 5796 5796 5797 5797 5798 5798 5798 5798 5798 5797 5797 5797 5797 5797 5797 5796 5796 5795 5795 5794 5794 5793 5792 5792 5791
5786 5787 5789 5789 5790 5791 5791 5791 5791 5791 5791 5791 5792 5792 5792 5792 5792 5793 5793 5794 5795 5795 5795 5795 5795 5795 5795 5795 5795 5795 5794 5794 5794 5793 5793 5792 5792 5791 5791 5790 5789 5788
5783 5784 5785 5785 5787 5788 5788 5788 5788 5788 5788 5788 5789 5789 5789 5789 5790 5790 5791 5791 5792 5792 5793 5793 5793 5792 5792 5792 5792 5792 5792 5791 5791 5791 5790 5790 5790 5789 5788 5787 5787 5786
5779 5781 5781 5782 5784 5784 5785 5785 5785 5785 5785 5785 5785 5786 5786 5787 5787 5787 5788 5788 5789 5789 5790 5790 5790 5790 5790 5790 5790 5789 5789 5789 5788 5788 5788 5788 5787 5786 5786 5785 5784 5783
5775 5777 5778 5779 5780 5781 5781 5781 5781 5781 5782 5782 5783 5783 5784 5784 5784 5784 5785 5785 5786 5786 5787 5787 5787 5787 5787 5787 5787 5787 5786 5786 5786 5786 5785 5785 5784 5784 5783 5782 5782 5781
5771 5773 5775 5775 5776 5777 5777 5777 5777 5778 5779 5779 5780 5780 5781 5781 5781 5781 5782 5782 5783 5784 5784 5784 5784 5784 5784 5784 5784 5784 5784 5783 5783 5783 5782 5782 5781 5781 5780 5780 5779 5778
5767 5769 5770 5771 5772 5773 5773 5773 5774 5775 5776 5776 5776 5777 5777 5777 5777 5778 5778 5779 5780 5781 5781 5781 5781 5781 5781 5781 5781 5781 5781 5780 5780 5780 5779 5779 5778 5778 5778 5777 5776 5776
5762 5764 5766 5767 5767 5768 5769 5769 5770 5771 5772 5773 5773 5774 5774 5774 5774 5774 5776 5777 5777 5778 5777 5777 5778 5778 5778 5778 5778 5778 5777 5777 5777 5777 5776 5776 5775 5775 5775 5774 5773 5773
5757 5760 5761 5762 5763 5764 5765 5765 5766 5768 5769 5769 5770 5770 5770 5770 5771 5771 5773 5773 5774 5774 5774 5774 5774 5775 5775 5774 5774 5774 5774 5774 5774 5774 5773 5773 5773 5772 5772 5771 5771 5770
5753 5755 5756 5757 5758 5759 5760 5761 5763 5764 5765 5766 5766 5766 5766 5767 5767 5768 5769 5770 5770 5771 5771 5771 5771 5771 5771 5771 5771 5771 5771 5771 5771 5770 5770 5770 5769 5769 5769 5768 5768 5767
5748 5750 5752 5752 5753 5755 5757 5758 5759 5760 5761 5762 5763 5763 5762 5763 5764 5765 5766 5766 5767 5767 5768 5768 5768 5767 5767 5767 5768 5768 5768 5767 5767 5767 5767 5767 5766 5766 5765 5765 5765 5764
5743 5745 5747 5748 5749 5751 5753 5754 5755 5756 5757 5758 5758 5758 5758 5759 5760 5761 5762 5763 5763 5764 5764 5764 5764 5763 5764 5764 5765 5764 5764 5764 5764 5764 5764 5763 5763 5763 5762 5762 5762 5761
5739 5741 5742 5743 5745 5747 5749 5750 5752 5752 5753 5753 5753 5754 5755 5755 5756 5757 5758 5759 5759 5760 5760 5760 5760 5760 5760 5761 5761 5761 5760 5760 5760 5760 5760 5760 5760 5759 5759 5759 5758 5757
5734 5736 5737 5738 5741 5743 5745 5747 5747 5748 5748 5748 5749 5750 5751 5751 5752 5753 5754 5755 5756 5756 5756 5756 5756 5756 5756 5757 5757 5757 5756 5756 5756 5756 5756 5756 5756 5755 5755 5755 5754 5754
5729 5730 5732 5734 5738 5740 5742 5743 5743 5743 5744 5743 5744 5746 5746 5747 5748 5749 5750 5751 5751 5752 5752 5752 5752 5752 5752 5753 5753 5753 5753 5752 5752 5752 5752 5752 5751 5751 5751 5751 5750 5749
5724 5726 5728 5731 5734 5737 5738 5738 5738 5739 5739 5739 5740 5741 5742 5743 5744 5745 5746 5747 5747 5747 5748 5748 5748 5748 5748 5749 5749 5749 5749 5749 5749 5749 5748 5748 5748 5747 5747 5746 5746 5745
5720 5723 5725 5729 5732 5733 5733 5733 5734 5734 5734 5736 5737 5737 5738 5740 5740 5741 5742 5742 5743 5743 5744 5744 5744 5744 5745 5745 5746 5746 5746 5746 5746 5745 5745 5744 5744 5744 5743 5742 5741 5741
5718 5720 5723 5726 5728 5729 5729 5730 5730 5731 5732 5734 5734 5735 5736 5736 5737 5738 5738 5739 5739 5739 5740 5740 5741 5741 5741 5742 5742 5742 5742 5742 5742 5741 5741 5740 5740 5740 5739 5738 5737 5737
5715 5717 5720 5722 5724 5725 5726 5727 5728 5729 5731 5731 5732 5732 5732 5733 5734 5734 5735 5735 5735 5735 5735 5736 5737 5737 5737 5737 5737 5738 5738 5738 5737 5737 5737 5736 5735 5735 5735 5734 5733 5732